Terminal Aerodrome Forecast
Issued by NWS Billings, MT

Home | Current Version | Previous Version | Text Only | Print | Product List | Glossary On
Versions: 1 2 3 4 5 6 7 8 9 10 11 12 13 14 15 16 17 18 19 20 21 22 23 24 25 26 27 28 29 30 31 32 33 34 35 36 37 38 39 40
000
FTUS45 KBYZ 310526
TAFBIL
TAF
KBIL 310526Z 3106/0106 25007KT P6SM VCSH BKN060 OVC120
     FM311300 27009KT P6SM -SHRA FEW030 OVC045
     FM311700 25011KT P6SM SCT070 BKN100
     FM010300 25011KT P6SM VCSH SCT070 BKN100=

USA.gov is the U.S. government's official web portal to all federal, state and local government web resources and services.